TimeCST,TemperatureF,Dew PointF,Humidity,Sea Level PressureIn,VisibilityMPH,Wind Direction,Wind SpeedMPH,Gust SpeedMPH,PrecipitationIn,Events,Conditions,WindDirDegrees,DateUTC
12:14 AM,5.0,1.4,85,30.27,10.0,NW,6.9,-,N/A,,Clear,320,2014-03-08 06:14:00
12:34 AM,3.2,1.4,92,30.27,10.0,NW,6.9,-,N/A,Snow,Light Snow,320,2014-03-08 06:34:00
12:55 AM,3.2,1.4,92,30.27,10.0,NW,4.6,-,N/A,Snow,Light Snow,320,2014-03-08 06:55:00
1:15 AM,3.2,1.4,92,30.27,10.0,NW,3.5,-,N/A,,Clear,320,2014-03-08 07:15:00
1:34 AM,3.2,1.4,92,30.27,10.0,NNW,4.6,-,N/A,,Clear,330,2014-03-08 07:34:00
1:55 AM,3.2,-0.4,85,30.28,10.0,NW,4.6,-,N/A,,Clear,310,2014-03-08 07:55:00
2:14 AM,3.2,-0.4,85,30.28,10.0,NW,3.5,-,N/A,,Clear,310,2014-03-08 08:14:00
2:34 AM,3.2,-0.4,85,30.27,10.0,NW,3.5,-,N/A,,Clear,320,2014-03-08 08:34:00
2:55 AM,3.2,1.4,92,30.27,10.0,NW,3.5,-,N/A,,Clear,320,2014-03-08 08:55:00
3:15 AM,3.2,1.4,92,30.28,10.0,Calm,Calm,-,N/A,,Clear,0,2014-03-08 09:15:00
3:34 AM,3.2,1.4,92,30.28,10.0,Calm,Calm,-,N/A,,Clear,0,2014-03-08 09:34:00
3:55 AM,3.2,1.4,92,30.28,10.0,Calm,Calm,-,N/A,,Clear,0,2014-03-08 09:55:00
4:15 AM,3.2,1.4,92,30.28,10.0,Calm,Calm,-,N/A,,Clear,0,2014-03-08 10:15:00
4:34 AM,3.2,-0.4,85,30.28,10.0,Calm,Calm,-,N/A,,Clear,0,2014-03-08 10:34:00
4:55 AM,1.4,-0.4,92,30.29,10.0,Calm,Calm,-,N/A,,Clear,0,2014-03-08 10:55:00
5:14 AM,1.4,-0.4,92,30.29,10.0,Calm,Calm,-,N/A,,Clear,0,2014-03-08 11:14:00
5:35 AM,1.4,-0.4,92,30.29,10.0,Calm,Calm,-,N/A,,Clear,0,2014-03-08 11:35:00
5:54 AM,1.4,-2.2,85,30.29,10.0,Calm,Calm,-,N/A,,Clear,0,2014-03-08 11:54:00
6:15 AM,-0.4,-4.0,85,30.28,10.0,Calm,Calm,-,N/A,,Clear,0,2014-03-08 12:15:00
6:35 AM,-0.4,-4.0,85,30.29,10.0,Calm,Calm,-,N/A,,Clear,0,2014-03-08 12:35:00
6:54 AM,-0.4,-4.0,85,30.30,10.0,Calm,Calm,-,N/A,,Clear,0,2014-03-08 12:54:00
7:15 AM,-2.2,-5.8,85,30.30,10.0,Calm,Calm,-,N/A,,Clear,0,2014-03-08 13:15:00
7:35 AM,-0.4,-4.0,85,30.30,10.0,Calm,Calm,-,N/A,,Clear,0,2014-03-08 13:35:00
7:54 AM,-0.4,-2.2,92,30.30,10.0,Calm,Calm,-,N/A,,Clear,0,2014-03-08 13:54:00
8:15 AM,1.4,-0.4,92,30.30,10.0,Calm,Calm,-,N/A,,Clear,0,2014-03-08 14:15:00
8:35 AM,3.2,-0.4,85,30.31,10.0,Calm,Calm,-,N/A,,Clear,0,2014-03-08 14:35:00
8:54 AM,5.0,3.2,92,30.29,7.0,SSE,3.5,-,N/A,,Clear,160,2014-03-08 14:54:00
9:14 AM,8.6,5.0,85,30.30,10.0,Calm,Calm,-,N/A,,Clear,0,2014-03-08 15:14:00
9:35 AM,10.4,8.6,92,30.29,10.0,Calm,Calm,-,N/A,,Clear,0,2014-03-08 15:35:00
9:54 AM,12.2,10.4,92,30.29,10.0,SSW,4.6,-,N/A,,Scattered Clouds,200,2014-03-08 15:54:00
10:14 AM,12.2,10.4,92,30.29,10.0,South,5.8,-,N/A,,Clear,190,2014-03-08 16:14:00
10:35 AM,14.0,12.2,93,30.29,10.0,SSW,4.6,-,N/A,,Clear,210,2014-03-08 16:35:00
10:54 AM,17.6,12.2,79,30.29,10.0,WSW,6.9,-,N/A,,Clear,240,2014-03-08 16:54:00
11:14 AM,17.6,12.2,79,30.28,10.0,SSW,8.1,-,N/A,,Clear,210,2014-03-08 17:14:00
11:35 AM,17.6,12.2,79,30.28,10.0,SW,5.8,-,N/A,,Clear,220,2014-03-08 17:35:00
11:54 AM,19.4,12.2,74,30.28,10.0,SW,5.8,-,N/A,,Clear,220,2014-03-08 17:54:00
12:14 PM,19.4,12.2,74,30.28,10.0,SW,4.6,-,N/A,,Scattered Clouds,230,2014-03-08 18:14:00
12:35 PM,21.2,12.2,68,30.27,10.0,SSW,4.6,-,N/A,,Clear,210,2014-03-08 18:35:00
12:54 PM,23.0,12.2,63,30.26,10.0,SW,6.9,-,N/A,,Scattered Clouds,220,2014-03-08 18:54:00
1:14 PM,21.2,12.2,68,30.25,10.0,SW,9.2,-,N/A,,Clear,230,2014-03-08 19:14:00
1:35 PM,21.2,10.4,63,30.24,10.0,WSW,5.8,-,N/A,,Clear,250,2014-03-08 19:35:00
1:54 PM,23.0,12.2,63,30.23,10.0,SSW,6.9,-,N/A,,Clear,210,2014-03-08 19:54:00
2:14 PM,23.0,12.2,63,30.21,10.0,SSW,6.9,-,N/A,,Clear,210,2014-03-08 20:14:00
2:35 PM,23.0,12.2,63,30.21,10.0,SSW,8.1,-,N/A,,Clear,210,2014-03-08 20:35:00
2:55 PM,23.0,10.4,59,30.21,10.0,SW,6.9,-,N/A,,Clear,230,2014-03-08 20:55:00
3:14 PM,23.0,10.4,59,30.20,10.0,SSW,9.2,-,N/A,,Clear,200,2014-03-08 21:14:00
3:35 PM,23.0,10.4,59,30.20,10.0,SW,10.4,-,N/A,,Clear,220,2014-03-08 21:35:00
3:55 PM,23.0,12.2,63,30.20,10.0,SW,8.1,-,N/A,,Clear,230,2014-03-08 21:55:00
4:14 PM,23.0,14.0,68,30.19,10.0,SW,6.9,-,N/A,,Clear,220,2014-03-08 22:14:00
4:35 PM,21.2,14.0,74,30.18,10.0,SSW,8.1,-,N/A,,Scattered Clouds,210,2014-03-08 22:35:00
4:55 PM,21.2,15.8,80,30.18,10.0,SSW,8.1,-,N/A,,Mostly Cloudy,200,2014-03-08 22:55:00
5:14 PM,21.2,17.6,86,30.17,10.0,SSW,9.2,-,N/A,,Overcast,200,2014-03-08 23:14:00
5:35 PM,21.2,17.6,86,30.16,10.0,SSW,9.2,-,N/A,,Scattered Clouds,210,2014-03-08 23:35:00
5:55 PM,21.2,15.8,80,30.14,10.0,SSW,8.1,-,N/A,,Clear,200,2014-03-08 23:55:00
6:14 PM,21.2,15.8,80,30.14,10.0,SSW,9.2,-,N/A,,Clear,210,2014-03-09 00:14:00
6:35 PM,21.2,15.8,80,30.13,10.0,SSW,8.1,-,N/A,,Clear,200,2014-03-09 00:35:00
6:55 PM,19.4,14.0,80,30.13,10.0,South,5.8,-,N/A,,Clear,170,2014-03-09 00:55:00
7:14 PM,19.4,14.0,80,30.12,10.0,South,5.8,-,N/A,,Clear,180,2014-03-09 01:14:00
7:35 PM,19.4,14.0,80,30.12,10.0,SSE,5.8,-,N/A,,Clear,160,2014-03-09 01:35:00
7:55 PM,19.4,14.0,80,30.10,10.0,SSE,6.9,-,N/A,,Clear,160,2014-03-09 01:55:00
8:14 PM,19.4,14.0,80,30.09,10.0,South,6.9,-,N/A,,Clear,170,2014-03-09 02:14:00
8:35 PM,19.4,14.0,80,30.08,10.0,SSE,6.9,-,N/A,,Clear,160,2014-03-09 02:35:00
8:55 PM,17.6,14.0,86,30.08,10.0,SSE,5.8,-,N/A,,Clear,160,2014-03-09 02:55:00
9:15 PM,17.6,14.0,86,30.08,10.0,SSE,5.8,-,N/A,,Clear,160,2014-03-09 03:15:00
9:34 PM,17.6,14.0,86,30.06,10.0,SSE,6.9,-,N/A,,Clear,160,2014-03-09 03:34:00
9:54 PM,17.6,14.0,86,30.05,10.0,SSE,6.9,-,N/A,,Clear,160,2014-03-09 03:54:00
10:15 PM,17.6,14.0,86,30.03,10.0,SSE,6.9,-,N/A,,Clear,160,2014-03-09 04:15:00
10:34 PM,17.6,14.0,86,30.01,10.0,SSE,6.9,-,N/A,,Clear,150,2014-03-09 04:34:00
10:55 PM,17.6,14.0,86,30.00,10.0,South,5.8,-,N/A,,Clear,170,2014-03-09 04:55:00
11:15 PM,19.4,15.8,86,29.99,10.0,SSE,5.8,-,N/A,,Clear,160,2014-03-09 05:15:00
11:34 PM,17.6,15.8,93,29.98,10.0,South,5.8,-,N/A,,Clear,170,2014-03-09 05:34:00
11:55 PM,19.4,17.6,93,29.97,10.0,SSE,6.9,-,N/A,,Clear,160,2014-03-09 05:55:00